TimeIST,TemperatureF,Dew PointF,Humidity,Sea Level PressureIn,VisibilityMPH,Wind Direction,Wind SpeedMPH,Gust SpeedMPH,PrecipitationIn,Events,Conditions,WindDirDegrees,DateUTC
8:30 AM,55.4,51.8,88,29.98,6.2,WSW,6.9,-,N/A,,Mostly Cloudy,250,2014-08-17 07:30:00
9:00 AM,57.2,51.8,82,29.98,6.2,West,6.9,-,N/A,,Mostly Cloudy,260,2014-08-17 08:00:00
9:30 AM,57.2,51.8,82,29.98,6.2,NW,8.1,-,N/A,Rain,Light Rain,310,2014-08-17 08:30:00
10:00 AM,57.2,50.0,77,29.98,6.2,NW,6.9,-,N/A,,Mostly Cloudy,310,2014-08-17 09:00:00
11:30 AM,59.0,51.8,77,29.98,6.2,WNW,9.2,-,N/A,,Mostly Cloudy,300,2014-08-17 10:30:00
1:00 PM,59.0,53.6,82,29.98,6.2,WNW,6.9,-,N/A,,Mostly Cloudy,290,2014-08-17 12:00:00
1:30 PM,59.0,51.8,77,29.98,6.2,WNW,5.8,-,N/A,Rain,Light Rain,300,2014-08-17 12:30:00
2:00 PM,60.8,48.2,63,29.98,6.2,NW,10.4,-,N/A,,Mostly Cloudy,310,2014-08-17 13:00:00
3:00 PM,64.4,51.8,64,29.98,6.2,NW,8.1,-,N/A,,Scattered Clouds,310,2014-08-17 14:00:00
3:30 PM,60.8,48.2,63,29.98,6.2,NNW,11.5,-,N/A,,Mostly Cloudy,330,2014-08-17 14:30:00
4:30 PM,62.6,48.2,59,29.98,6.2,NW,10.4,-,N/A,,Mostly Cloudy,310,2014-08-17 15:30:00
5:00 PM,62.6,50.0,63,29.98,6.2,NW,11.5,-,N/A,,Mostly Cloudy,320,2014-08-17 16:00:00
5:30 PM,60.8,50.0,68,29.98,6.2,NNW,11.5,-,N/A,,Scattered Clouds,330,2014-08-17 16:30:00
6:00 PM,57.2,50.0,77,29.98,6.2,NW,6.9,-,N/A,,Mostly Cloudy,310,2014-08-17 17:00:00
6:30 PM,59.0,48.2,67,29.95,6.2,NNW,10.4,21.9,N/A,,Mostly Cloudy,330,2014-08-17 17:30:00
7:00 PM,59.0,50.0,72,29.98,6.2,NNW,10.4,-,N/A,,Mostly Cloudy,330,2014-08-17 18:00:00
7:30 PM,57.2,51.8,82,29.98,6.2,WNW,4.6,-,N/A,,Partly Cloudy,300,2014-08-17 18:30:00
8:00 PM,57.2,48.2,72,29.98,6.2,WNW,3.5,-,N/A,,Scattered Clouds,290,2014-08-17 19:00:00
8:30 PM,55.4,48.2,77,29.98,6.2,WNW,3.5,-,N/A,,Scattered Clouds,290,2014-08-17 19:30:00
9:30 PM,53.6,48.2,82,29.98,6.2,West,5.8,-,N/A,,Scattered Clouds,260,2014-08-17 20:30:00